Attività con fini culturali e ricreativi - Codice Fiscale 91122750689  


METAR

LIBP 191750Z 28003KT 230V330 9999 SCT020 BKN070 07/05 Q1013

Dopo la dubbia stagione 2014 sono finalmente arrivati gli annunci per i nuovi voli estivi 2015. Si è partiti subito il 2 aprile con l'inagurazione del volo Alitalia Pescara-Roma Fiumicino che opererà 3 volte al giorno con ATR 72 Etihad (Darwin) che, si spera, non sia stagionale e continui ad offrire il collegamento feeder con Roma.

La Balkan Express ha deciso di riaprire i collegamenti estivi per i balcani siglando un accordo di 3 anni mettendo in campo collegamenti bisettimanali con Tirana - con Fokker 50 Air Vallee - e collegamenti diretti settimanali per Corfù e Mykonos operati con Boeing 737 Mistral.

È già partito il collegamento bisettimanale annunciato da tempo Pescara-Mostar con ATR 72 BH Airlines mentre è stato ritardato al 25 ottobre l'inizio del volo Pescara-Bucarest con WizzAir.

Vedi la programmazione voli

Ultimi caricamenti...


I-AMDO Aviomar Cessna 172S Skyhawk SP

 


LZ-DEO ALK Airlines McDonnell Douglas MD-82

 


MM80730 (PS-30) Polizia di Stato Agusta-Bell AB-206

Questo sito non utilizza cookie di profilazione. Il sito utilizza cookie tecnici, di analisi anonima di prima parte e di terze parti per servizi di social network.